TimeEST,TemperatureF,Dew PointF,Humidity,Sea Level PressureIn,VisibilityMPH,Wind Direction,Wind SpeedMPH,Gust SpeedMPH,PrecipitationIn,Events,Conditions,WindDirDegrees,DateUTC
12:15 AM,24.8,24.8,100,30.43,7.0,SE,3.5,-,N/A,,Clear,130,2013-01-08 05:15:00
12:35 AM,23.0,23.0,100,30.42,5.0,SSE,3.5,-,N/A,,Clear,150,2013-01-08 05:35:00
12:55 AM,23.0,23.0,100,30.42,5.0,SE,3.5,-,N/A,,Clear,140,2013-01-08 05:55:00
1:15 AM,23.0,23.0,100,30.41,7.0,Calm,Calm,-,N/A,,Clear,0,2013-01-08 06:15:00
1:40 AM,23.0,23.0,100,30.41,7.0,Calm,Calm,-,N/A,,Clear,0,2013-01-08 06:40:00
2:00 AM,23.0,23.0,100,30.41,7.0,Calm,Calm,-,N/A,,Clear,0,2013-01-08 07:00:00
2:20 AM,23.0,23.0,100,30.41,5.0,Calm,Calm,-,N/A,,Clear,0,2013-01-08 07:20:00
2:30 AM,23.0,23.0,100,30.41,5.0,Calm,Calm,-,N/A,,Clear,0,2013-01-08 07:30:00
3:05 AM,23.0,23.0,100,30.41,5.0,Calm,Calm,-,N/A,,Clear,0,2013-01-08 08:05:00
3:25 AM,21.2,21.2,100,30.40,7.0,Calm,Calm,-,N/A,,Clear,0,2013-01-08 08:25:00
3:45 AM,23.0,23.0,100,30.39,5.0,Calm,Calm,-,N/A,,Clear,0,2013-01-08 08:45:00
4:05 AM,21.2,21.2,100,30.39,4.0,Calm,Calm,-,N/A,,Clear,0,2013-01-08 09:05:00
4:30 AM,23.0,23.0,100,30.40,5.0,Calm,Calm,-,N/A,,Clear,0,2013-01-08 09:30:00
4:50 AM,23.0,23.0,100,30.40,5.0,Calm,Calm,-,N/A,,Clear,0,2013-01-08 09:50:00
5:10 AM,21.2,21.2,100,30.40,7.0,Calm,Calm,-,N/A,,Clear,0,2013-01-08 10:10:00
5:30 AM,21.2,21.2,100,30.40,4.0,Calm,Calm,-,N/A,,Clear,0,2013-01-08 10:30:00
5:50 AM,21.2,21.2,100,30.40,4.0,Calm,Calm,-,N/A,,Clear,0,2013-01-08 10:50:00
6:45 AM,19.4,19.4,100,30.42,7.0,Calm,Calm,-,N/A,,Clear,0,2013-01-08 11:45:00
7:46 AM,19.4,19.4,100,30.43,7.0,Calm,Calm,-,N/A,,Clear,0,2013-01-08 12:46:00
8:45 AM,28.4,28.4,100,30.43,10.0,WSW,3.5,-,N/A,,Clear,240,2013-01-08 13:45:00
9:45 AM,33.8,30.2,87,30.44,10.0,SW,4.6,-,N/A,,Clear,220,2013-01-08 14:45:00
11:50 AM,42.8,33.8,70,30.41,7.0,SW,5.8,-,N/A,,Clear,220,2013-01-08 16:50:00
12:45 PM,44.6,33.8,66,30.40,10.0,Calm,Calm,-,N/A,,Clear,0,2013-01-08 17:45:00
1:55 PM,51.8,35.6,54,30.38,10.0,West,3.5,-,N/A,,Clear,280,2013-01-08 18:55:00
2:50 PM,53.6,33.8,47,30.38,10.0,West,3.5,-,N/A,,Clear,260,2013-01-08 19:50:00
3:52 PM,51.8,35.6,54,30.39,10.0,Calm,Calm,-,N/A,,Clear,0,2013-01-08 20:52:00
4:45 PM,48.2,32.0,54,30.40,10.0,Calm,Calm,-,N/A,,Clear,0,2013-01-08 21:45:00
5:50 PM,35.6,30.2,81,30.40,10.0,Calm,Calm,-,N/A,,Clear,0,2013-01-08 22:50:00
6:50 PM,32.0,28.4,87,30.41,10.0,Calm,Calm,-,N/A,,Clear,0,2013-01-08 23:50:00
7:55 PM,26.6,26.6,100,30.40,10.0,Calm,Calm,-,N/A,,Clear,0,2013-01-09 00:55:00
8:05 PM,28.4,28.4,100,30.40,10.0,Calm,Calm,-,N/A,,Clear,0,2013-01-09 01:05:00
8:25 PM,28.4,28.4,100,30.40,10.0,Calm,Calm,-,N/A,,Clear,0,2013-01-09 01:25:00
8:45 PM,28.4,28.4,100,30.40,10.0,Calm,Calm,-,N/A,,Clear,0,2013-01-09 01:45:00
9:10 PM,28.4,28.4,100,30.42,7.0,Calm,Calm,-,N/A,,Clear,0,2013-01-09 02:10:00
9:50 PM,26.6,26.6,100,30.41,10.0,Calm,Calm,-,N/A,,Clear,0,2013-01-09 02:50:00
10:10 PM,26.6,26.6,100,30.41,10.0,Calm,Calm,-,N/A,,Clear,0,2013-01-09 03:10:00
10:35 PM,26.6,26.6,100,30.41,7.0,Calm,Calm,-,N/A,,Clear,0,2013-01-09 03:35:00
10:55 PM,24.8,24.8,100,30.41,5.0,Calm,Calm,-,N/A,,Clear,0,2013-01-09 03:55:00
11:15 PM,26.6,26.6,100,30.40,7.0,Calm,Calm,-,N/A,,Clear,0,2013-01-09 04:15:00
11:35 PM,24.8,24.8,100,30.41,7.0,Calm,Calm,-,N/A,,Clear,0,2013-01-09 04:35:00